Weather History for KCMA - February, 2013

Change the Weather History Date:

Monday, February 4, 2013

  Actual Average Record
Temperature  
Mean Temperature 56 °F 54 °F  
Max Temperature 65 °F 66 °F 89 °F (2001)
Min Temperature 46 °F 42 °F 32 °F (1979)
Degree Days  
Heating Degree Days 9 11  
Month to date heating degree days 21 44  
Since 1 July heating degree days 867 1063  
Cooling Degree Days 0 0  
Month to date cooling degree days 0 0  
Year to date cooling degree days 20 7  
Growing Degree Days 5 (Base 50)    
Moisture  
Dew Point 47 °F    
Average Humidity 78    
Maximum Humidity 96    
Minimum Humidity 60    
Precipitation  
Precipitation 0.00 in 0.10 in 0.45 in (1990)
Month to date precipitation T 0.34  
Year to date precipitation 1.07 3.81  
Since 1 July precipitation 3.78  
Sea Level Pressure  
Sea Level Pressure 30.07 in    
Wind  
Wind Speed 2 mph (WSW)    
Max Wind Speed 13 mph    
Max Gust Speed 15 mph    
Visibility 6 miles    
Events Fog    
T = Trace of Precipitation, MM = Missing Value Source: NWS Daily Summary

Daily Weather History Graph

Daily Weather History Graph

Search for Another Location

Airport or City:

Trip Planner

Search our weather history database for the weather conditions in past years. The results will help you decide how hot, cold, wet, or windy it might be!

Date:

Astronomy

Feb. 04, 2013 Rise Set
Actual Time 6:51 AM PST 5:29 PM PST
Civil Twilight 6:25 AM PST 5:56 PM PST
Nautical Twilight 5:55 AM PST 6:25 PM PST
Astronomical Twilight 5:25 AM PST 6:55 PM PST
Moon 1:29 AM PST (2/4) 12:01 PM PST (2/4)
Length of Visible Light 11h 31m
Length of Day
10h 38m
Last Quarter, 36% of the Moon is Illuminated
Feb 4
Last Quarter
Feb 9
New
Feb 17
First Quarter
Feb 25
Full
Mar 4
Last Quarter

Hourly Weather History & Observations

Time (PST) Temp. Dew Point Humidity Pressure Visibility Wind Dir Wind Speed Gust Speed Precip Events Conditions
12:55 AM 46.0 °F 42.1 °F 86% 30.07 in 6.0 mi Calm Calm - N/A   Clear
1:16 AM 48.2 °F 44.6 °F 87% 30.05 in 7.0 mi Calm Calm - N/A   Scattered Clouds
1:25 AM 48.2 °F 44.6 °F 87% 30.05 in 7.0 mi Calm Calm - N/A   Mostly Cloudy
2:55 AM 50.0 °F 46.9 °F 89% 30.07 in 3.0 mi NE 4.6 mph - N/A   Overcast
3:09 AM 51.8 °F 48.2 °F 88% 30.05 in 2.5 mi NE 3.5 mph - N/A   Overcast
3:15 AM 51.8 °F 48.2 °F 88% 30.05 in 1.5 mi Calm Calm - N/A   Overcast
3:28 AM 51.8 °F 48.2 °F 88% 30.05 in 0.8 mi NE 5.8 mph - N/A   Overcast
3:55 AM 52.0 °F 50.0 °F 93% 30.08 in 0.2 mi ENE 4.6 mph - N/A Fog Fog
4:55 AM 50.0 °F 46.9 °F 89% 30.08 in 0.2 mi Calm Calm - N/A Fog Fog
5:55 AM 48.9 °F 46.0 °F 90% 30.07 in 0.2 mi Calm Calm - N/A Fog Fog
6:18 AM 46.4 °F 44.6 °F 93% 30.05 in 2.0 mi Calm Calm - N/A   Mostly Cloudy
6:25 AM 46.4 °F 44.6 °F 93% 30.05 in 8.0 mi Calm Calm - N/A   Mostly Cloudy
6:32 AM 46.4 °F 44.6 °F 93% 30.05 in 1.8 mi Calm Calm - N/A   Mostly Cloudy
6:35 AM 46.4 °F 44.6 °F 93% 30.05 in 0.8 mi Calm Calm - N/A   Mist
6:55 AM 46.9 °F 45.0 °F 93% 30.08 in 0.2 mi Calm Calm - N/A Fog Fog
7:55 AM 46.0 °F 44.1 °F 93% 30.10 in 0.2 mi Calm Calm - N/A Fog Fog
8:07 AM 46.4 °F 44.6 °F 93% 30.08 in 10.0 mi Calm Calm - N/A   Clear
8:55 AM 52.0 °F 46.0 °F 80% 30.12 in 10.0 mi Calm Calm - N/A   Clear
9:55 AM 57.0 °F 46.0 °F 67% 30.13 in 10.0 mi Calm Calm - N/A   Clear
10:55 AM 62.1 °F 48.9 °F 62% 30.12 in 10.0 mi SSW 3.5 mph - N/A   Clear
11:55 AM 64.9 °F 51.1 °F 61% 30.09 in 10.0 mi SW 5.8 mph - N/A   Clear
12:55 PM 64.0 °F 50.0 °F 60% 30.06 in 10.0 mi SSW 6.9 mph - N/A   Clear
1:55 PM 64.0 °F 51.1 °F 63% 30.04 in 10.0 mi SW 6.9 mph - N/A   Clear
2:55 PM 64.9 °F 50.0 °F 58% 30.03 in 10.0 mi WSW 9.2 mph - N/A   Clear
3:55 PM 62.1 °F 50.0 °F 65% 30.03 in 10.0 mi WSW 5.8 mph - N/A   Clear
4:55 PM 60.1 °F 48.9 °F 67% 30.02 in 10.0 mi West 4.6 mph - N/A   Clear
5:55 PM 57.9 °F 48.9 °F 72% 30.03 in 10.0 mi Calm Calm - N/A   Clear
6:55 PM 55.9 °F 48.0 °F 75% 30.04 in 9.0 mi Calm Calm - N/A   Clear
7:55 PM 53.1 °F 46.9 °F 80% 30.06 in 9.0 mi WNW 3.5 mph - N/A   Clear
8:55 PM 51.1 °F 46.0 °F 83% 30.08 in 9.0 mi Calm Calm - N/A   Clear
9:55 PM 53.1 °F 48.0 °F 83% 30.09 in 9.0 mi Calm Calm - N/A   Clear
10:55 PM 48.0 °F 44.1 °F 86% 30.09 in 9.0 mi Calm Calm - N/A   Clear
11:55 PM 48.9 °F 42.1 °F 77% 30.09 in 9.0 mi Calm Calm - N/A   Clear